This is the latest recevied weather packets stored in our database for station/object W2SRH. If no packets are shown the sender has not sent any weather packets the latest 10 day(s).
| Time | Temp. | Humidity | Pressure | Rain* | Wind** | Luminosity | Snow |
|---|---|---|---|---|---|---|---|
| 1777586945 | 16.67° C | 50% | 999.2 hPa | 0 mm | 0.89 m/s, 349° | - | - |
| 1777586344 | 17.22° C | 50% | 999.1 hPa | 0 mm | 0.45 m/s, 4° | - | - |
| 1777585744 | 17.22° C | 48% | 999 hPa | 0 mm | 1.34 m/s, 315° | - | - |
| 1777585144 | 17.22° C | 48% | 998.9 hPa | 0 mm | 2.24 m/s, 306° | - | - |
| 1777584545 | 17.22° C | 48% | 998.9 hPa | 0 mm | 1.34 m/s, 328° | - | - |
| 1777583944 | 17.22° C | 48% | 998.8 hPa | 0 mm | 1.34 m/s, 2° | - | - |
| 1777583344 | 17.78° C | 48% | 998.6 hPa | 0 mm | 1.79 m/s, 308° | - | - |
| 1777582745 | 16.67° C | 49% | 998.6 hPa | 0 mm | 2.24 m/s, 325° | - | - |
| 1777582144 | 17.22° C | 49% | 998.5 hPa | 0 mm | 1.34 m/s, 315° | - | - |
| 1777581544 | 17.22° C | 50% | 998.5 hPa | 0 mm | 1.79 m/s, 337° | - | - |
| 1777580950 | 16.67° C | 51% | 998.5 hPa | 0 mm | 2.24 m/s, 318° | - | - |
| 1777580522 | 16.67° C | 51% | 998.6 hPa | 0 mm | 2.68 m/s, 314° | - | - |
| 1777580344 | 16.67° C | 51% | 998.6 hPa | 0 mm | 2.68 m/s, 314° | - | - |
| 1777579743 | 16.67° C | 52% | 998.4 hPa | 0 mm | 2.68 m/s, 304° | - | - |
| 1777579144 | 16.67° C | 53% | 998.4 hPa | 0 mm | 2.24 m/s, 313° | - | - |
| 1777578554 | 16.67° C | 53% | 998.3 hPa | 0 mm | 1.79 m/s, 315° | - | - |
| 1777577947 | 16.11° C | 55% | 998.3 hPa | 0 mm | 1.79 m/s, 289° | - | - |
| 1777577345 | 16.11° C | 57% | 998.4 hPa | 0 mm | 2.24 m/s, 329° | - | - |
| 1777576743 | 16.11° C | 57% | 998.4 hPa | 0 mm | 3.13 m/s, 299° | - | - |
| 1777576144 | 16.11° C | 58% | 998.6 hPa | 0 mm | 2.24 m/s, 314° | - | - |
| 1777575546 | 16.11° C | 56% | 998.5 hPa | 0 mm | 1.79 m/s, 319° | - | - |
| 1777574944 | 16.11° C | 58% | 998.7 hPa | 0 mm | 1.79 m/s, 314° | - | - |
| 1777574344 | 16.11° C | 57% | 998.7 hPa | 0 mm | 0.89 m/s, 321° | - | - |
| 1777573745 | 16.11° C | 58% | 998.5 hPa | 0 mm | 0.89 m/s, 316° | - | - |
| 1777573144 | 15.56° C | 59% | 998.5 hPa | 0 mm | 1.79 m/s, 327° | - | - |
* Rain latest hour (hover to see other rain measurements)
** Current wind speed in m/s (hover to see current wind gust speed)